AirNav   Advertisement
 
 1067 users online  

ID61 Valenov Ranch Airport
Priest River, Idaho, USA


FAA INFORMATION EFFECTIVE 14 SEPTEMBER 2017

Location

FAA Identifier: ID61
Lat/Long: 48-17-47.6720N / 117-00-54.7340W
48-17.794533N / 117-00.912233W
48.2965756 / -117.0152039
(estimated)
Elevation: 2425 ft. / 739 m (estimated)
Variation: 19E (1985)
From city: 8 miles NW of PRIEST RIVER, ID
Time zone: UTC -7 (UTC -8 during Standard Time)
Zip code: 83856

Airport Operations

Airport use: Private use. Permission required prior to landing
Activation date: 09/1987
Control tower: no
ARTCC: SEATTLE CENTER
FSS: BOISE FLIGHT SERVICE STATION
Attendance: UNATNDD
Wind indicator: yes
Segmented circle: no
Landing fee: yes

Airport Communications

UNICOM: 122.7
WX AWOS-3 at SZT (18 nm E): 135.425 (208-263-3074)

Nearby radio navigation aids

VOR radial/distance  VOR name  Freq  Var
COEr327/32.3COEUR D'ALENE VOR/DME108.8019E

 
NDB name  Hdg/Dist  Freq  Var  ID
SANDPOE257/18.026414ESZT ... --.. -
DEER PARK024/25.736516EDPY -.. .--. -.--
IONE126/29.437921EION .. --- -.

Airport Services

Runway Information

Runway 7/25

Dimensions: 1800 x 50 ft. / 549 x 15 m
Surface: gravel
RUNWAY 7  RUNWAY 25
Traffic pattern: rightleft
Displaced threshold: 1000 ft.no
Obstructions: 375 ft. hill, 500 ft. from runway5 ft. fence, 100 ft. from runway

Airport Ownership and Management from official FAA records

Ownership: Privately-owned
Owner: FRANK D. HONOROF
PO BOX 459
PRIEST RIVER, ID 83856
Manager: P O BOX 509
ATHOL, ID 83801
Phone 208-683-3726

Airport Operational Statistics

Aircraft based on the field: 1
Single engine airplanes: 1
    

Instrument Procedures

There are no published instrument procedures at ID61.

Some nearby airports with instrument procedures:

KSZT - Sandpoint Airport (18 nm E)
KDEW - Deer Park Airport (26 nm SW)
KCOE - Coeur d'Alene Airport - Pappy Boyington Field (32 nm S)
65S - Boundary County Airport (39 nm NE)
KSFF - Felts Field Airport (39 nm S)
 
Loc | Ops | Rwys | IFR | FBO | Links
Com | Nav | Svcs | Stats | Notes


 
Area around ID61 (Valenov Ranch Airport)
 
Road maps at: MapQuest Bing Google
 
Aerial photo
No photo
 
Sectional chart

 
Airport distance calculator
Flying to Valenov Ranch Airport? Find the distance to fly.

From to ID61

Sunrise and sunset
Times for 21-Sep-2017
 Local
(UTC-7)
 Zulu
(UTC)
Morning civil twilight06:0313:03
Sunrise06:3413:34
Sunset18:4801:48
Evening civil twilight19:1902:19

Current date and time
Zulu (UTC)  21-Sep-2017 22:38:37
Local (UTC-7)  21-Sep-2017 15:38:37
 
METAR
KSZT 
18nm E 
212215Z AUTO 20003KT 10SM OVC016 08/05 A2992 RMK AO2
KDEW 
26nm SW 
212153Z AUTO 12003KT 10SM SCT020 BKN032 OVC047 09/05 A2991 RMK AO2 SLP134 T00940050
KCOE 
33nm S 
212224Z AUTO 33003KT 10SM FEW016 BKN025 OVC033 09/05 A2992 RMK AO2
TAF
KCOE 
33nm S 
211727Z 2118/2218 25004KT P6SM SCT008 BKN020 OVC030 FM211900 25004KT P6SM BKN025 OVC050 FM212100 28004KT P6SM VCSH SCT030 BKN060 FM220000 02005KT P6SM FEW050 SCT100 BKN200 FM220600 03008KT P6SM FEW070 SCT200
KSFF 
39nm S 
212008Z 2120/2218 00000KT P6SM BKN015 OVC025 FM212130 VRB03KT P6SM VCSH SCT035 BKN060 FM220000 02003KT P6SM FEW050 SCT100 BKN200 FM220600 02003KT P6SM FEW070 SCT200
NOTAMs
Click for the latest NOTAMs
NOTAMs are issued by the DoD/FAA and will open in a separate window not controlled by AirNav.

 

 
 

Would you like to see your business listed on this page?

 If your business provides an interesting product or service to pilots, flight crews, aircraft, or users of the Valenov Ranch Airport, you should consider listing it here.  To start the listing process, click on the button below
 
Add a business
 

Other Pages about Valenov Ranch Airport

Update a link
 
Copyright © AirNav, LLC. All rights reserved. Privacy Policy  Contact